Regional Weather Roundup
Issued by NWS

Home | Current Version | Previous Version | Text Only | Print | Product List | Glossary On
Versions: 1 2 3 4 5 6 7 8 9 10 11 12 13 14 15 16 17 18 19 20 21 22 23 24 25 26 27 28 29 30 31 32 33 34 35 36 37 38 39 40 41 42 43 44 45 46 47 48 49 50
460
ASUS44 KJAN 150803
RWRMS

MISSISSIPPI HOURLY WEATHER ROUNDUP
NATIONAL WEATHER SERVICE JACKSON MS
300 AM CDT TUE APR 15 2014

NOTE: "FAIR: INDICATES FEW OR NO CLOUDS BELOW 12,000 FEET WITH NO
SIGNIFICANT WEATHER AND/OR OBSTRUCTIONS TO VISIBILITY.

MSZ001>002-007>008-010>013-018>021-025>028-034>036-150900-
NORTHWEST MISSISSIPPI

CITY           SKY/WX    TMP DP  RH WIND       PRES   REMARKS
CLARKSDALE       N/A     41  34  75 N16G26    30.09R
CLEVELAND      CLOUDY    42  34  73 N21       30.09R
GREENWOOD      CLOUDY    43  34  70 N16G25    30.05R
GREENVILLE     CLOUDY    43  33  68 N17G30    30.09R
GRENADA        CLOUDY    41  36  81 N15       30.05R
OLIVE BRANCH   CLOUDY    37  34  87 N18G25    30.06R WCI  27
OXFORD         CLOUDY    39  32  75 N12G20    30.05R WCI  32
TUNICA         CLOUDY    41  32  70 N23G29    30.09R
$$

MSZ003>006-009-014>017-022>024-029>033-037>039-150900-
NORTHEAST MISSISSIPPI

CITY           SKY/WX    TMP DP  RH WIND       PRES   REMARKS
BELMONT        LGT RAIN  41  39  93 NW6G16    29.95R
COLUMBUS AFB   LGT RAIN  44  42  92 N16       29.95R
CORINTH        CLOUDY    39  36  87 N14G22    29.99R WCI  31
GOLDN TRIANGLE CLOUDY    45  39  81 NW10G18   29.97R
STARKVILLE     DRIZZLE   43  43 100 NW9       29.96R
TUPELO         CLOUDY    42  37  82 N16G23    29.98R
$$

MSZ040-058-150900-
CENTRAL MISSISSIPPI

CITY           SKY/WX    TMP DP  RH WIND       PRES   REMARKS
JACKSON INTL   CLOUDY    44  42  93 NW14G24   30.02R
JACKSON HAWKNS CLOUDY    44  40  85 NW10G20   30.03R
MERIDIAN KEY   LGT RAIN  47  45  93 NW12G22   29.92S
MERIDIAN NAS   CLOUDY    48  45  89 NW15G23   29.92R
RAYMOND        CLOUDY    45  39  81 NW7       30.04S
VICKSBURG      CLOUDY    46  37  71 N15G24    30.09R
$$

MSZ059>079-150900-
SOUTH MISSISSIPPI

CITY           SKY/WX    TMP DP  RH WIND       PRES   REMARKS
BROOKHAVEN     CLOUDY    45  45 100 N14G22    30.01S
COLUMBIA       CLOUDY    48  45  87 MISG      29.95S
HATTIESBURG    LGT RAIN  49  46  90 NW12G21   29.94R
MCCOMB         CLOUDY    47  43  86 N21G30    29.98R
NATCHEZ        CLOUDY    43  37  81 N10G23    30.06R
PINE BELT      CLOUDY    48  43  81 N12G20    29.93S
$$

MSZ080>082-150900-
COASTAL MISSISSIPPI

CITY           SKY/WX    TMP DP  RH WIND       PRES   REMARKS
BILOXI         RAIN      55  54  97 N17G24    29.87R FOG
PASCAGOULA     RAIN      58  57  97 NW15G31   29.84R FOG
GULFPORT       RAIN      54  49  83 NW21G32   29.87R
$$



USA.gov is the U.S. government's official web portal to all federal, state and local government web resources and services.